Regional Weather Roundup
Issued by NWS Portland, ME

Current Version | Previous Version | Text Only | Print | Product List | Glossary Off
Versions: 1 2 3 4 5 6 7 8 9 10 11 12 13 14 15 16 17 18 19 20 21 22 23 24 25 26 27 28 29 30 31 32 33 34 35 36 37 38 39 40 41 42 43 44 45 46 47 48 49 50
000 ASUS41 KGYX 271205 RWRGYX WEATHER ROUNDUP FOR MAINE AND NEW HAMPSHIRE NATIONAL WEATHER SERVICE GRAY ME 800 AM EDT TUE JUN 27 2017 MEZ002-005-006-010-012-015-018-020-021-024-026-027-029-271300- MAINE CITY SKY/WX TMP DP RH WIND PRES REMARKS PORTLAND CLOUDY 62 55 77 S3 30.00R 6HR MIN TEMP: 56; 6HR MAX TEMP: 62; SANFORD CLOUDY 60 56 86 CALM 30.00S BAR HARBOR SUNNY 62 56 80 CALM 30.01S WISCASSET CLOUDY 63 56 78 VRB3 30.00F 6HR MIN TEMP: 51; 6HR MAX TEMP: 63; ROCKLAND PTSUNNY 62 57 83 CALM 29.99S FRYEBURG PTSUNNY 61 54 77 CALM 30.00R 6HR MIN TEMP: 53; 6HR MAX TEMP: 62; LEWISTONAUBURN CLOUDY 61 54 77 CALM 29.99S AUGUSTA PTSUNNY 60 53 77 S3 29.99S 6HR MIN TEMP: 53; 6HR MAX TEMP: 60; WATERVILLE MOSUNNY 59 56 89 CALM 29.96 BANGOR PTSUNNY 62 56 80 S7 29.99S 6HR MIN TEMP: 56; 6HR MAX TEMP: 63; 6HR PCP: TRACE; GREENVILLE N/A 59 50 72 CALM 29.98S 6HR MIN TEMP: 51; 6HR MAX TEMP: 59; 6HR PCP: 0.01; MILLINOCKET SUNNY 59 53 80 E3 30.00F 6HR MIN TEMP: 50; 6HR MAX TEMP: 59; 6HR PCP: TRACE; HOULTON PTSUNNY 59 51 75 CALM 30.00S 6HR MIN TEMP: 44; 6HR MAX TEMP: 59; PRESQUE ISLE SUNNY 55 50 83 N3 30.02R 6HR MIN TEMP: 42; 6HR MAX TEMP: 55; FRENCHVILLE MOSUNNY 55 44 66 VRB3 30.02R 6HR MIN TEMP: 41; 6HR MAX TEMP: 55; CARIBOU SUNNY 58 45 62 CALM 30.01R 6HR MIN TEMP: 45; 6HR MAX TEMP: 58; $$ NHZ002-005-008-009-011-012-014-271300- NEW HAMPSHIRE CITY SKY/WX TMP DP RH WIND PRES REMARKS PORTSMOUTH PTSUNNY 62 56 80 NW3 29.98S ROCHESTER CLOUDY 60 55 83 CALM 29.99S 6HR MIN TEMP: 53; 6HR MAX TEMP: 60; NASHUA CLOUDY 59 57 93 VRB6 30.01R MANCHESTER CLOUDY 60 54 80 SW3 29.99R 6HR MIN TEMP: 57; 6HR MAX TEMP: 61; CONCORD CLOUDY 59 57 93 S3 30.01R 6HR MIN TEMP: 54; 6HR MAX TEMP: 59; LACONIA CLOUDY N/A N/A N/A SW6 30.01R PLYMOUTH FAIR 55 52 90 CALM 30.01R BERLIN MOSUNNY 56 49 77 CALM 30.00S 6HR MIN TEMP: 44; 6HR MAX TEMP: 56; WHITEFIELD MOSUNNY 56 50 80 CALM 30.00F 6HR MIN TEMP: 45; 6HR MAX TEMP: 56; JAFFREY CLOUDY 58 57 97 VRB3 30.03R 6HR MIN TEMP: 53; 6HR MAX TEMP: 58; KEENE CLOUDY 57 55 93 CALM 30.03R LEBANON CLOUDY 58 56 93 CALM 30.00S 6HR MIN TEMP: 54; 6HR MAX TEMP: 58; 6HR PCP: TRACE; MT WASHINGTON NOT AVBL $$ VTZ005-007-008-271300- VERMONT CITY SKY/WX TMP DP RH WIND PRES REMARKS ST JOHNSBURY N/A 58 55 90 MISG 29.98S MONTPELIER CLOUDY 58 52 80 S13 30.02S BURLINGTON MOSUNNY 62 54 74 S9 29.97S $$ MAZ007-012-024-CTZ003-RIZ002-NYZ038-NYZ072-271300- SOUTHERN NEW ENGLAND AND NY CITY SKY/WX TMP DP RH WIND PRES REMARKS BOSTON PTSUNNY 63 57 81 SE6 30.00S WORCESTER PTSUNNY 61 51 70 S5 30.02R NANTUCKET SUNNY 65 61 87 S9 30.04R PROVIDENCE PTSUNNY 65 63 93 CALM 30.02S HARTFORD RAIN 60 57 89 SW7 30.04R ALBANY CLOUDY 59 56 89 CALM 30.00S NEW YORK CITY PTSUNNY 63 60 90 NE7 30.01R $$ ANZ081-ANZ082-ANZ150-NHZ014-MEZ023>029-271300- COASTAL MARINE OBSERVATIONS STATION/POSITION TIME TEMP WIND PRES WAVE AIR SEA DIR/SP/G HT/PER (UTC) (F) (DEG/KT/KT) (MB) (FT/S) MATINICUS ROCK 1100 61 230/ 8/ 9 1015.2R ISLE OF SHOALS 1100 61 240/ 4/ 4 1015.4F JEFFREYS LEDGE 1136 57 N/A 2/ 7 CASHES LEDGE BUO 1050 65 61 1016.2 2/ 7 GEORGES BANK BUO 1050 58 53 1018.0 3/ 8 $$ .............KEY.............. WCI - WIND CHILL TC - TEMPERATURE IN CELSIUS VSB - VISIBILITY IN MILES HX - HEAT INDEX FAIR- INDICATES FEW OR NO CLOUDS BELOW 12,000 FT, WITH NO SIGNIFICANT WEATHER AND/OR OBSTRUCTIONS TO VISIBILITY.

USA.gov is the U.S. government's official web portal to all federal, state and local government web resources and services.